GW6037 Weather Reports


time (UTC)temp
C
wind
direction
speed
KPH
gust
KPH
rain 1hr
cm
rain 24hr
cm
rain mn
cm
humidity
%
barometer
mb
20260505041557 24 0 0.0 3.2 0.00 0.00 0.00 92 1018.6
20260505040105 24 79 0.0 3.2 0.00 0.00 0.00 92 1018.6
20260505034558 25 0 1.6 3.2 0.00 0.00 0.00 92 1018.7
20260505033101 25 0 0.0 0.0 0.00 0.00 0.00 91 1018.7
20260505031604 25 0 0.0 0.0 0.00 0.00 0.00 91 1018.8
20260505030105 25 0 0.0 1.6 0.00 0.00 0.00 91 1018.9
20260505024555 25 0 0.0 3.2 0.00 0.00 0.00 90 1018.9
20260505023057 25 0 0.0 3.2 0.00 0.00 0.00 90 1018.8
20260505021552 25 0 0.0 3.2 0.00 0.00 0.00 89 1018.7
20260505020056 25 0 0.0 0.0 0.00 0.00 0.00 89 1018.6
20260505014551 26 0 0.0 0.0 0.00 0.00 0.00 88 1018.5
20260505013053 26 0 0.0 0.0 0.00 0.00 0.00 88 1018.4
20260505011555 26 0 0.0 0.0 0.00 0.00 0.00 87 1018.3
20260505010058 26 188 1.6 4.8 0.00 0.00 0.00 87 1018.1
20260505004550 26 174 1.6 3.2 0.00 0.00 0.00 86 1018.0
20260505003051 27 278 0.0 6.4 0.00 0.00 0.00 84 1017.8
20260505001550 27 13 3.2 6.4 0.00 0.00 0.00 83 1017.6
20260504234552 27 98 1.6 6.4 0.00 0.00 0.00 82 1017.6
20260504233054 27 348 0.0 4.8 0.00 0.00 0.00 82 1017.5
20260504231551 27 98 1.6 8.0 0.00 0.00 0.00 82 1017.3
20260504230056 27 0 0.0 6.4 0.00 0.00 0.00 81 1017.3
20260504224602 28 281 1.6 6.4 0.00 0.00 0.00 80 1017.1
20260504223057 28 360 6.4 14.5 0.00 0.00 0.00 79 1017.1
20260504221555 28 9 8.0 16.1 0.00 0.00 0.00 79 1016.8
20260504220118 28 333 6.4 14.5 0.00 0.00 0.00 78 1016.7
20260504214559 28 49 9.7 16.1 0.00 0.00 0.00 77 1016.5
20260504213101 28 19 9.7 19.3 0.00 0.00 0.00 77 1016.3
20260504211554 29 360 11.3 19.3 0.00 0.00 0.00 77 1016.3
20260504210054 28 13 14.5 22.5 0.00 0.00 0.00 78 1016.3
20260504204553 29 38 9.7 17.7 0.00 0.00 0.00 77 1016.3
20260504203051 29 18 12.9 20.9 0.00 0.00 0.00 77 1016.2
20260504201553 29 21 11.3 19.3 0.00 0.00 0.00 77 1016.3
20260504200100 29 21 11.3 19.3 0.00 0.00 0.00 76 1016.3
20260504194553 28 339 11.3 20.9 0.00 0.00 0.00 76 1016.3
20260504193054 29 12 12.9 20.9 0.00 0.00 0.00 76 1016.4
20260504191559 29 329 12.9 19.3 0.00 0.00 0.00 75 1016.4
20260504190107 29 360 14.5 20.9 0.00 0.00 0.00 75 1016.4
20260504184610 30 330 9.7 19.3 0.00 0.00 0.00 68 1016.5
20260504183052 30 11 12.9 19.3 0.00 0.00 0.00 71 1016.6
20260504181550 30 315 11.3 25.7 0.00 0.00 0.00 69 1016.8
20260504180051 30 19 14.5 22.5 0.00 0.00 0.00 72 1017.0
20260504174552 30 340 11.3 17.7 0.00 0.00 0.00 73 1017.1
20260504173056 30 19 9.7 20.9 0.00 0.00 0.00 74 1017.3
20260504171550 30 341 9.7 22.5 0.00 0.00 0.00 74 1017.6
20260504170109 28 304 14.5 22.5 0.00 0.00 0.00 75 1017.6
20260504081552 22 105 1.6 6.4 0.00 0.00 0.00 86 1017.3